Find OneWeb SL0192

NORAD ID: 48222 Int'l Des: 2021-031 Owner: ONEWEBN Country: UK Constellation: oneweb operational
LEOCIRCULARPOLARONEWEB_TYPE

Live Position

Loading 3D Globe...

About OneWeb SL0192

Description loading...

Upcoming Passes

Passes for default location (London). Set your location on the main map for personalized predictions.

Altitude History

Loading altitude history...

Two-Line Element Set

1 48222U 21031N 26124.70464117 .00000283 00000-0 72806-3 0 9999
2 48222 87.8918 298.3838 0001674 90.1862 269.9460 13.14502550242466
Epoch: May 4, 2026 • Age: 14 hours

Current Status

Altitude 1229.4 km
Velocity 7.24 km/s
Sub-Earth Point -58.09°S, 154.89°E
Launch Date Apr 25, 2021
Age 5 years
Type internet

Technical Details

Classification Payload
Mass 148.00 kg
Dry Mass 140.00 kg
Total Mass 148.00 kg
Length 1.30 m
Diameter 1.00 m
Span 5.00 m
Shape Trapezoid+2 pan
Manufacturer ONEWUS
Bus Type ARROW
Phase Status In Orbit
Owner/State ONEWEBN/UK

Most Searched